Temperature
20 20 20 20 19 19 19 19 19 19 19 19 19 19 19 19 19 19 19 19 19 19 19 18 18 18 18 18 18 18 18 18 18 18 18 17 17 17 17 17 17 17 17
20 20 20 20 20 19 19 19 19 19 19 19 19 19 19 19 19 19 19 19 19 19 19 19 18 18 18 18 18 18 18 18 18 18 17 17 17 17 17 17 17 17 17
21 20 20 20 20 20 19 19 19 19 19 19 19 19 19 19 19 19 19 19 19 19 19 18 18 18 18 18 18 18 18 18 18 17 17 17 17 17 17 17 17 17 17
21 20 20 20 20 20 20 19 19 19 19 19 19 19 19 19 19 19 18 19 19 19 18 18 18 18 18 18 18 18 18 18 17 17 17 17 17 17 17 17 17 17 17
21 21 20 20 20 20 20 19 19 19 19 19 19 19 19 18 18 18 18 18 18 18 18 18 18 18 18 18 17 17 17 17 17 17 17 17 17 17 17 17 17 17 17
21 21 20 20 20 20 19 19 19 19 19 19 19 19 18 18 18 18 18 18 18 18 18 18 18 18 18 17 17 17 17 17 17 17 17 17 17 17 17 17 17 17 17
21 21 20 20 20 20 19 19 19 19 19 19 19 19 18 18 18 18 18 18 18 18 18 18 18 18 18 17 17 17 17 17 17 18 18 17 17 17 17 17 17 17 17
22 21 21 20 20 20 20 19 19 19 19 19 19 19 18 18 18 18 18 18 18 18 18 18 18 18 17 17 17 17 17 17 17 18 18 17 17 17 17 17 17 17 17
21 21 21 20 20 20 20 20 19 19 19 19 19 18 18 18 18 18 18 18 18 18 18 18 18 18 17 17 17 17 17 17 17 18 18 17 17 17 17 17 17 17 17
21 21 21 20 20 20 20 20 19 19 19 19 19 18 18 18 18 18 18 18 18 18 18 18 18 18 17 17 17 17 17 17 17 18 18 18 17 17 17 17 17 17 17
21 21 21 20 20 20 20 20 19 19 19 19 18 18 18 18 18 18 18 18 18 18 18 18 18 18 18 17 17 17 17 17 17 18 18 18 18 17 17 17 17 17 17
21 21 21 20 20 20 20 20 19 19 19 19 18 18 18 18 18 18 18 18 18 18 18 18 18 18 18 17 17 17 17 18 17 17 18 18 18 17 17 17 17 17 17
21 21 20 20 20 20 20 20 19 19 19 18 18 18 18 18 18 18 18 18 18 18 18 18 18 18 18 18 18 18 18 18 18 18 17 18 18 17 17 17 17 17 17
21 21 20 20 20 20 20 20 19 19 19 18 18 18 18 18 18 18 18 18 18 18 18 18 18 18 18 18 18 18 18 18 18 18 18 17 17 17 17 17 17 17 17
21 21 20 20 20 20 19 19 19 19 19 19 18 18 18 18 18 18 18 18 18 18 18 18 18 18 18 18 18 18 18 18 18 18 18 17 17 17 17 17 17 17 17
21 21 20 20 20 20 19 19 19 19 19 19 18 18 18 18 18 18 18 18 18 18 18 18 18 18 18 18 18 18 18 18 18 18 18 17 17 17 17 17 17 17 17
22 21 21 20 20 20 19 19 19 19 19 19 18 18 18 18 18 18 18 18 18 18 18 18 18 18 18 18 18 18 18 18 18 17 17 17 17 17 17 17 17 17 17
22 21 21 20 20 20 19 19 19 19 19 18 18 18 18 18 18 18 18 18 18 18 18 18 18 17 18 18 18 18 18 18 17 17 17 17 17 17 17 17 17 17 17
22 21 21 21 20 20 20 19 19 19 19 18 18 18 18 18 18 18 18 18 18 18 18 18 18 18 18 18 18 18 17 18 17 17 17 17 17 17 17 17 17 17 17
22 21 21 21 20 20 20 19 19 19 19 18 18 18 18 18 18 18 18 18 18 18 18 18 18 18 18 18 18 18 18 18 18 18 17 17 17 17 17 17 17 17 17
22 21 21 21 20 20 20 19 19 19 19 18 18 18 18 18 18 18 18 18 18 18 18 18 18 18 18 18 17 18 18 18 18 18 17 17 17 17 17 17 17 17 17
22 21 21 21 20 20 20 19 19 19 18 18 18 18 18 18 18 18 18 18 18 18 18 18 18 18 18 18 17 17 17 18 18 17 17 17 17 17 17 17 17 17 17
22 22 21 21 20 20 20 19 19 18 18 18 18 18 18 18 18 18 18 18 18 18 18 18 18 18 18 18 17 17 17 18 18 18 17 17 17 17 17 17 17 17 17
22 21 21 21 20 20 20 19 19 19 19 18 18 18 18 18 18 18 18 18 18 18 18 18 18 18 18 18 17 17 17 17 17 17 17 17 17 17 17 17 17 17 16
22 21 21 21 20 20 20 19 19 19 19 18 18 18 18 18 18 18 18 18 18 18 18 18 18 18 18 18 18 18 17 17 17 17 17 17 17 17 17 17 16 16 16
22 21 21 21 20 20 20 19 19 19 19 18 18 18 18 18 18 18 18 18 18 18 18 18 18 18 18 18 18 18 17 17 17 17 17 17 17 17 16 16 16 16 16
Wind_Speed
5 9 15 15 16 16 16 16 17 17 17 17 18 18 18 18 18 18 17 16 16 16 16 15 15 16 16 16 16 16 16 16 16 16 16 16 16 16 17 17 17 15 17
9 13 16 16 16 16 16 16 16 16 16 16 16 16 16 17 16 16 16 16 15 15 15 15 15 14 15 15 15 15 15 15 15 15 16 15 15 16 16 16 16 15 17
12 14 16 17 16 16 16 16 16 15 15 15 15 15 15 15 15 15 15 15 15 15 14 14 14 13 13 14 14 14 15 15 15 15 15 14 14 15 16 16 16 16 16
14 14 16 17 17 16 16 16 15 15 15 14 14 14 14 14 14 14 14 14 14 14 13 13 13 12 12 13 13 13 14 14 14 14 12 12 13 15 15 16 16 16 16
12 15 17 18 17 16 16 15 15 15 14 14 14 14 13 13 13 13 13 13 13 13 12 12 12 11 11 11 12 12 12 12 13 12 12 12 12 15 15 15 15 16 15
11 14 17 18 17 16 15 15 15 14 14 13 13 13 13 13 12 12 12 12 12 12 11 11 11 10 10 10 10 10 10 12 12 12 12 12 12 14 15 15 15 15 15
11 13 17 18 17 16 16 15 14 14 13 13 13 12 12 12 12 12 12 12 12 11 11 10 10 10 9 9 9 9 10 12 12 12 11 12 12 14 15 14 15 14 14
14 13 16 18 17 16 15 15 14 14 13 13 12 12 12 12 12 12 12 12 11 11 10 9 9 8 8 8 8 9 9 12 13 12 11 12 13 13 14 14 14 14 13
14 13 13 15 16 16 15 15 14 14 13 12 12 12 12 12 12 12 11 11 11 10 9 8 8 7 7 7 7 8 10 12 12 11 12 11 13 13 14 14 13 13 13
11 10 10 12 13 13 14 15 14 14 13 12 12 12 12 12 11 11 10 10 10 9 8 7 6 5 5 5 6 7 10 12 11 11 11 12 13 13 13 13 13 13 13
11 9 8 9 11 12 12 13 14 13 13 12 11 11 10 9 9 9 9 10 9 8 7 6 5 4 3 3 5 7 9 9 10 10 11 13 14 13 13 13 13 13 12
13 11 10 9 10 11 11 11 10 10 10 10 9 9 8 8 8 8 9 9 9 7 6 5 4 2 1 2 3 5 7 9 9 10 11 14 14 13 13 12 12 12 12
14 12 11 10 11 10 8 10 8 8 9 8 9 9 9 8 7 7 6 6 6 6 4 3 2 1 1 1 2 4 7 8 9 10 11 14 14 14 13 12 12 12 12
12 11 10 9 9 9 10 8 8 7 7 7 9 11 9 6 6 6 5 5 4 4 3 3 2 1 2 2 4 5 6 7 9 10 12 14 14 14 13 13 12 12 12
12 11 11 10 9 8 7 6 7 6 7 8 9 10 10 7 5 5 4 5 5 5 5 3 2 2 2 2 4 6 6 9 10 11 12 14 14 14 13 13 12 12 12
12 12 10 10 9 8 6 4 6 8 9 9 9 11 12 9 7 5 4 4 5 6 6 5 4 2 2 2 2 5 7 9 10 11 12 13 15 14 13 13 13 12 12
13 12 11 11 9 9 7 6 6 8 9 7 9 12 12 11 9 6 4 3 5 7 6 4 3 2 2 2 2 3 6 7 9 11 12 12 13 14 14 13 13 13 13
13 12 11 11 10 9 7 5 5 7 7 7 8 10 12 12 10 7 4 3 6 7 5 3 2 2 1 1 2 2 3 5 7 9 11 11 12 11 13 13 13 12 12
14 13 11 10 10 9 7 5 4 5 6 6 8 9 11 12 11 8 5 4 6 4 3 3 2 3 2 2 2 2 2 2 4 7 8 10 12 11 12 12 13 13 13
12 12 11 10 9 7 5 4 3 3 3 5 6 7 10 10 10 8 5 5 5 3 2 2 2 2 2 2 2 1 1 2 3 4 6 9 10 12 13 12 13 13 14
11 11 11 11 9 7 4 4 3 3 3 3 4 7 9 9 9 7 4 3 4 4 4 3 2 2 1 1 1 2 3 2 2 3 4 4 6 10 13 13 12 11 11
11 10 10 11 10 8 6 5 4 3 3 3 3 5 8 9 8 7 5 4 4 4 4 4 3 2 1 2 3 1 2 4 2 2 2 4 5 6 8 11 10 11 10
11 12 11 10 9 8 7 4 3 2 1 2 2 3 5 8 8 7 6 5 4 5 5 4 4 4 3 2 3 4 3 3 2 2 1 2 2 3 3 5 8 9 11
11 10 10 10 9 8 8 7 7 5 4 4 4 4 4 6 7 8 7 6 5 4 5 4 4 4 4 3 2 3 3 4 3 1 2 1 1 2 2 3 4 6 8
10 10 9 9 8 8 8 8 7 5 4 3 3 4 4 3 5 7 7 6 5 4 5 5 4 4 4 4 4 3 2 2 2 3 2 1 1 1 1 1 2 3 5
8 9 8 9 8 8 8 7 7 7 5 4 4 4 4 3 3 4 5 5 4 4 5 5 5 5 4 4 4 3 3 3 3 3 3 3 2 1 1 1 1 2 4
Wind_Direction
136 135 126 121 118 114 110 107 105 103 101 99 99 98 99 101 103 106 107 107 107 107 107 108 109 110 111 112 113 114 115 116 117 116 116 117 118 119 119 116 114 112 114
141 136 128 124 121 118 114 111 108 106 105 103 102 101 102 103 105 106 107 107 107 107 108 108 108 110 111 113 115 117 117 118 116 113 115 118 120 119 120 119 117 118 117
132 132 128 126 123 120 118 115 113 110 108 107 106 105 105 106 107 107 109 109 108 108 108 109 111 111 112 114 115 117 119 117 116 113 112 111 116 117 118 120 120 119 118
133 131 130 128 126 124 122 121 118 116 113 111 110 109 109 109 111 111 112 111 111 110 110 111 112 112 114 115 116 117 119 118 118 117 112 114 118 118 117 119 120 120 119
129 132 134 131 129 128 126 125 123 121 118 117 115 113 113 114 115 115 115 115 114 113 113 113 112 113 114 115 115 115 117 120 118 115 112 112 117 121 121 121 121 122 122
129 134 137 134 133 131 130 128 127 125 123 120 119 118 118 118 118 119 119 119 118 116 115 115 114 113 113 114 115 115 114 117 114 113 112 115 121 126 127 126 124 125 125
134 136 138 137 135 134 133 132 130 129 126 124 123 122 121 120 120 121 122 122 123 121 119 116 114 112 110 111 111 110 114 121 120 118 116 119 126 130 129 128 127 127 128
140 140 141 141 140 139 138 136 134 133 132 130 128 127 124 122 121 123 126 126 126 126 123 120 116 113 110 111 107 108 116 127 125 124 123 127 133 133 132 131 130 131 132
142 142 143 146 145 144 142 140 140 139 138 135 132 131 129 128 127 127 130 131 132 132 130 127 123 118 112 109 109 109 121 128 126 130 134 137 138 137 137 137 136 135 135
143 146 147 147 147 146 146 146 145 144 143 140 139 138 137 136 135 134 136 138 138 137 137 135 133 126 118 112 112 110 121 125 127 133 139 145 145 143 143 144 143 140 139
151 155 153 150 150 150 151 153 151 150 150 147 146 146 141 136 137 139 145 147 145 145 146 145 142 138 122 107 115 113 118 129 131 138 147 152 152 151 150 149 149 149 148
163 167 166 162 161 162 160 152 154 155 155 154 154 152 149 152 152 150 155 154 152 152 154 156 158 157 117 84 94 106 120 133 137 146 157 159 158 156 154 153 156 156 153
165 168 169 168 169 169 157 157 164 163 163 167 169 167 161 160 157 153 153 154 155 156 161 171 172 223 235 176 124 130 134 137 145 152 162 164 163 162 160 160 161 160 158
158 165 163 164 167 168 160 166 169 167 171 177 179 172 161 154 154 158 161 166 168 174 179 188 206 247 243 195 156 153 149 146 153 158 168 171 169 169 168 167 168 166 164
158 161 162 159 160 159 159 169 169 172 175 178 176 176 169 160 163 166 172 179 182 184 183 190 218 235 209 184 177 167 158 155 161 164 171 175 176 177 177 174 173 173 172
160 159 157 160 158 153 155 161 168 174 175 173 176 177 172 167 166 169 174 181 191 191 188 187 200 196 187 175 179 171 165 162 168 171 174 180 184 184 184 183 182 182 182
161 158 159 162 156 153 156 162 166 171 170 173 177 178 172 169 168 165 167 178 196 194 189 183 188 167 171 160 176 172 167 171 174 179 182 185 188 191 191 191 191 192 192
158 159 165 163 157 157 158 155 158 162 168 174 173 171 171 173 172 166 169 190 198 192 178 166 163 147 162 162 188 195 178 177 176 185 187 189 191 195 199 200 198 198 202
162 162 163 158 161 163 158 145 140 153 161 173 170 167 172 175 177 174 180 189 184 171 173 183 161 161 183 193 201 203 197 180 182 188 191 196 197 196 196 202 204 206 208
162 161 160 160 164 159 142 123 111 136 160 173 172 174 174 176 179 177 182 188 175 155 171 178 168 173 184 190 210 232 244 212 195 195 198 198 200 201 202 205 208 213 215
160 161 163 163 169 158 152 148 145 170 179 179 183 186 179 176 181 180 180 175 170 167 181 178 166 174 206 165 93 348 330 316 222 208 201 193 201 204 203 206 205 208 217
167 168 164 168 171 170 170 163 164 170 181 182 180 190 190 183 186 185 175 181 179 175 184 185 171 165 214 168 145 123 337 336 329 245 201 197 207 203 201 204 205 207 213
171 174 173 171 172 175 169 151 144 118 105 147 184 198 205 198 196 196 187 180 184 183 192 198 182 174 198 219 175 157 166 224 283 317 267 215 187 187 195 191 201 205 208
178 173 168 167 170 172 168 165 171 178 187 195 187 196 210 206 200 201 195 187 185 187 194 203 191 183 177 207 220 201 186 168 171 269 336 343 200 185 194 187 188 199 204
173 170 169 163 168 171 172 173 178 185 186 177 171 190 209 217 205 202 196 192 193 198 203 205 195 193 190 194 200 202 199 187 172 170 230 308 351 322 204 177 157 180 198
165 165 166 166 172 174 173 175 181 183 181 177 184 194 206 212 213 207 201 193 192 200 208 206 203 199 202 198 197 190 181 180 191 182 200 214 226 291 34 107 145 162 180
Height
1540 1540 1541 1542 1542 1543 1543 1543 1544 1545 1545 1546 1547 1547 1548 1549 1549 1550 1550 1551 1552 1553 1554 1554 1555 1556 1556 1557 1558 1559 1559 1560 1561 1562 1562 1563 1564 1565 1565 1566 1567 1568 1569
1539 1541 1542 1543 1544 1544 1545 1545 1546 1546 1547 1547 1548 1549 1549 1550 1551 1551 1552 1553 1554 1554 1555 1556 1557 1557 1558 1559 1560 1560 1561 1562 1562 1563 1564 1565 1565 1566 1567 1568 1569 1569 1570
1540 1542 1543 1544 1545 1545 1546 1546 1547 1548 1549 1549 1550 1550 1551 1552 1552 1553 1554 1554 1555 1556 1557 1557 1558 1559 1559 1560 1561 1562 1563 1563 1564 1565 1565 1566 1567 1568 1569 1569 1570 1571 1572
1541 1543 1544 1545 1546 1546 1547 1548 1548 1549 1550 1550 1551 1552 1552 1553 1554 1554 1555 1556 1556 1557 1558 1559 1560 1560 1561 1562 1563 1563 1564 1565 1566 1567 1567 1568 1569 1570 1570 1571 1572 1572 1573
1542 1544 1545 1546 1547 1547 1548 1549 1550 1550 1551 1552 1552 1553 1554 1554 1555 1555 1556 1557 1558 1559 1559 1560 1561 1562 1563 1564 1564 1565 1566 1567 1567 1568 1569 1570 1570 1571 1572 1573 1574 1574 1575
1543 1545 1546 1547 1548 1549 1549 1550 1551 1552 1552 1553 1554 1554 1555 1555 1556 1557 1557 1558 1559 1560 1561 1562 1562 1563 1564 1565 1566 1567 1567 1568 1569 1570 1570 1571 1572 1573 1574 1574 1575 1576 1577
1543 1545 1547 1548 1549 1550 1551 1551 1552 1553 1554 1554 1555 1555 1556 1556 1557 1558 1559 1560 1560 1561 1562 1563 1564 1565 1566 1567 1568 1568 1569 1570 1571 1571 1572 1573 1574 1574 1575 1576 1577 1578 1578
1544 1546 1547 1549 1550 1551 1552 1552 1553 1554 1555 1556 1556 1557 1557 1558 1558 1559 1560 1561 1562 1562 1564 1565 1566 1567 1568 1569 1569 1570 1571 1571 1572 1573 1573 1574 1575 1576 1577 1577 1578 1579 1580
1546 1547 1548 1550 1551 1552 1553 1553 1554 1555 1556 1557 1557 1558 1559 1559 1560 1560 1561 1562 1563 1564 1565 1567 1568 1569 1570 1571 1571 1572 1573 1573 1574 1574 1575 1575 1576 1577 1578 1579 1579 1580 1581
1547 1548 1549 1550 1552 1552 1553 1554 1555 1556 1557 1558 1559 1559 1560 1561 1561 1562 1563 1564 1565 1566 1567 1568 1569 1570 1571 1572 1573 1574 1574 1575 1576 1576 1576 1577 1578 1578 1579 1580 1581 1581 1582
1547 1549 1550 1551 1553 1554 1554 1555 1556 1557 1558 1559 1560 1561 1561 1562 1563 1564 1564 1565 1566 1567 1568 1570 1571 1572 1573 1574 1575 1575 1576 1576 1577 1577 1578 1578 1579 1579 1580 1581 1582 1582 1583
1547 1549 1550 1552 1553 1554 1555 1556 1557 1558 1559 1560 1561 1562 1562 1563 1564 1565 1566 1567 1568 1569 1570 1571 1572 1573 1574 1575 1576 1577 1577 1578 1578 1578 1579 1579 1580 1580 1581 1582 1582 1583 1584
1546 1549 1550 1552 1553 1554 1556 1557 1558 1559 1560 1561 1562 1563 1564 1564 1565 1566 1567 1568 1569 1570 1571 1573 1574 1575 1576 1577 1577 1578 1578 1579 1579 1579 1580 1580 1581 1581 1582 1582 1583 1584 1584
1546 1548 1550 1552 1553 1555 1556 1557 1558 1559 1560 1561 1562 1563 1564 1565 1566 1568 1569 1570 1571 1572 1573 1574 1575 1576 1576 1577 1578 1579 1579 1579 1580 1580 1580 1581 1581 1582 1582 1583 1583 1584 1585
1545 1547 1549 1551 1553 1554 1556 1557 1558 1559 1560 1561 1563 1564 1565 1566 1567 1568 1570 1571 1572 1573 1574 1574 1575 1576 1577 1578 1579 1579 1580 1580 1580 1581 1581 1581 1581 1582 1582 1583 1583 1584 1585
1544 1546 1548 1550 1552 1554 1556 1557 1558 1559 1560 1561 1562 1564 1565 1566 1567 1569 1570 1571 1572 1573 1574 1575 1576 1577 1578 1578 1579 1580 1580 1580 1580 1580 1581 1581 1581 1582 1582 1582 1583 1584 1584
1543 1545 1547 1549 1552 1554 1555 1556 1558 1559 1560 1561 1562 1563 1565 1566 1567 1569 1570 1571 1572 1574 1575 1576 1577 1577 1578 1578 1579 1579 1580 1580 1580 1580 1580 1581 1581 1581 1582 1582 1583 1583 1584
1542 1544 1546 1548 1550 1552 1554 1556 1557 1558 1559 1561 1562 1563 1564 1566 1567 1568 1570 1571 1572 1573 1574 1575 1576 1577 1578 1578 1578 1579 1579 1580 1580 1580 1580 1580 1580 1581 1581 1582 1582 1582 1583
1541 1543 1545 1547 1549 1551 1553 1554 1556 1557 1559 1560 1561 1562 1564 1565 1566 1568 1569 1570 1571 1572 1574 1574 1575 1576 1577 1577 1578 1578 1578 1579 1579 1579 1579 1579 1580 1580 1580 1581 1581 1581 1582
1540 1542 1544 1546 1548 1550 1552 1553 1555 1557 1558 1559 1560 1562 1563 1564 1565 1567 1568 1569 1570 1571 1572 1573 1574 1575 1576 1576 1577 1577 1577 1577 1577 1577 1578 1578 1578 1579 1579 1580 1580 1580 1580
1539 1540 1542 1544 1546 1548 1550 1552 1553 1555 1557 1558 1559 1561 1562 1563 1564 1565 1566 1567 1569 1570 1571 1572 1573 1573 1574 1575 1575 1575 1576 1576 1576 1576 1576 1576 1577 1577 1578 1578 1578 1578 1578
1537 1539 1540 1542 1544 1546 1548 1550 1552 1554 1556 1557 1558 1559 1561 1562 1563 1564 1565 1566 1567 1568 1569 1570 1571 1571 1572 1573 1573 1574 1574 1575 1574 1574 1574 1574 1574 1575 1575 1576 1576 1576 1576
1535 1537 1538 1540 1542 1545 1547 1549 1551 1553 1554 1556 1556 1558 1559 1560 1561 1562 1563 1564 1565 1566 1567 1567 1568 1569 1570 1571 1571 1572 1572 1571 1572 1572 1572 1572 1572 1572 1572 1573 1573 1574 1574
1533 1536 1538 1539 1541 1543 1545 1547 1549 1550 1551 1553 1554 1555 1557 1558 1559 1560 1561 1562 1563 1564 1564 1565 1566 1566 1567 1568 1569 1569 1570 1569 1570 1569 1570 1569 1569 1570 1570 1570 1571 1571 1572
1532 1534 1536 1538 1539 1541 1543 1545 1546 1548 1550 1551 1552 1553 1554 1556 1557 1558 1559 1559 1560 1561 1561 1562 1563 1563 1564 1564 1565 1566 1566 1567 1567 1567 1567 1567 1567 1567 1568 1568 1568 1568 1569
1531 1533 1535 1536 1537 1539 1541 1543 1545 1546 1548 1549 1550 1551 1552 1553 1554 1555 1556 1557 1557 1558 1559 1559 1560 1560 1560 1561 1562 1562 1563 1563 1564 1564 1564 1564 1565 1565 1565 1566 1566 1566 1566